User: anonymous   Login
Location: Unspecified
(0.0000°N, 0.0000°E)
Time: 18:48:05
(UTC+00:00)
Language:

KAGAYAKI - Orbit

View from above orbital plane
View from above orbital plane
View from above satellite
View from above satellite

Ground track
Ground track

The orbit data is extracted from the following two-line orbital elements,

1 33495U 09002D   18350.93161896 +.00000028 +00000-0 +12997-4 0  9997
2 33495 098.3776 165.8624 0009389 093.0084 267.2197 14.72108871530990
Epoch (UTC): 16 December 2018 22:21:31
Eccentricity: 0.0009389
inclination: 98.3776°
perigee height: 648 km
apogee height: 661 km
right ascension of ascending node: 165.8624°
argument of perigee: 93.0084°
revolutions per day: 14.72108871
mean anomaly at epoch: 267.2197°
orbit number at epoch: 53099

The dashed part of the orbit path shows where the satellite is in the earth's shadow,  

DLR